Home   Weather   Flekkefjord   Past weeks

Flag for Norway Past Weather in Flekkefjord, Norway — Yesterday and Last 2 Weeks

Now
53 °F

Cool.


Feels Like: 48 °F
Forecast: 53 / 56 °F
Wind: 18 mph from West

Location: Lista Fyr

Current Time: Sep 30, 2016 at 1:53:04 AM

Latest Report: Sep 30, 2016 at 1:00 AM


Visibility: N/A

Pressure: 29.41 "Hg

Humidity: 71%

Dew Point: 44 °F

Location of FlekkefjordLocation

Past Weather in Flekkefjord — Graph

°F

Flekkefjord Temperature Yesterday

Maximum temperature yesterday: 62 °F (at 4:00 AM)
Minimum temperature yesterday: 53 °F (at 8:00 PM)
Average temperature yesterday: 58 °F

High & Low Weather Summary for the Past Weeks

 TemperatureHumidityPressure
High74 °F (Sep 15, 5:00 PM)100% (Sep 15, 2:00 AM)30.24 "Hg (Sep 15, 2:00 AM)
Low51 °F (Sep 19, 7:00 AM)60% (Sep 15, 5:00 PM)29.29 "Hg (Sep 29, 1:00 PM)
Average60 °F83%30.03 "Hg
* Reported Sep 14 11:00 PM — Sep 29 11:00 PM, Flekkefjord, Weather by CustomWeather, © 2016

Note: Actual official high and low records may vary slightly from our data, if they occured in-between our weather recording intervals... More about our weather records

Advertising

Flekkefjord Weather History for the Previous 24 Hours

Scroll right to see more
 ConditionsComfort  
Time TempWeatherWind HumidityBarometerVisibility
11:00 PM
Thu, Sep 29
54 °FCool.17 mph72%29.38 "HgN/A
10:00 PM55 °FCool.16 mph77%29.38 "HgN/A
9:00 PM55 °FCool.16 mph72%29.35 "HgN/A
8:00 PM53 °FRain showers. Overcast.20 mph78%29.35 "Hg12 mi
7:00 PM55 °FCool.22 mph77%29.32 "HgN/A
6:00 PM56 °FCool.23 mph71%29.29 "HgN/A
5:00 PM55 °FCool.23 mph83%29.29 "HgN/A
4:00 PM58 °FCool.24 mph69%29.29 "HgN/A
3:00 PM59 °FCool.23 mph72%29.29 "HgN/A
2:00 PM59 °FOvercast.23 mph72%29.29 "Hg12 mi
1:00 PM59 °FCool.24 mph70%29.29 "HgN/A
11:00 AM59 °FOvercast.22 mph71%29.35 "Hg12 mi
9:00 AM60 °FCool.18 mph75%29.38 "HgN/A
8:00 AM60 °FOvercast.18 mph80%29.38 "Hg11 mi
7:00 AM61 °FCool.17 mph88%29.41 "HgN/A
6:00 AM61 °FCool.17 mph90%29.44 "HgN/A
5:00 AM61 °FCool.16 mph95%29.44 "HgN/A
4:00 AM62 °FCool.16 mph93%29.50 "HgN/A
3:00 AM61 °FCool.16 mph94%29.55 "HgN/A
2:00 AM61 °FCool.15 mph96%29.58 "HgN/A
1:00 AM59 °FCool.13 mph97%29.63 "HgN/A
Weather by CustomWeather, © 2016

See weather overviewHow to use our weather pages